Вернуться в каталог

THOR ABLESTAR R/B

АктивенLEO
NORAD 118·ROCKET BODY·🇺🇸 United States

Запущен Jun 29, 1961 с Cape Canaveral Space Force Station

Loading…

Ближайшие Пролёты (ближайшие 24 часа)

TLE

СвежийSource: Space-Track

Эпоха: Sep 14, 2026, 20:03 UTC

1 00118U 61015C   26257.83546554  .00000013  00000-0  57920-4 0  9996
2 00118  66.7634 196.9087 0085926 212.6611 146.9143 14.02759550328710

Отслеживайте THOR ABLESTAR R/B в реальном времени с AllMySat

Download on the App Store